Location: Caltech
(34.1382°N, 118.1253°W)
Time: 15:26:02
(UTC-07:00)

Transit 2A - Visible Passes

Search period start: 28 June 2016 00:00
Search period end: 08 July 2016 00:00
Orbit: 592 x 968 km, 66.7° (Epoch: 28 June)

Date Brightness Start Highest point End Pass type
(mag) Time Alt. Az. Time Alt. Az. Time Alt. Az.
28 Jun 8.1 00:54:21 20° WNW 00:55:55 23° NW 01:00:34 10° N visible
28 Jun 7.3 22:40:04 28° ENE 22:40:04 28° ENE 22:43:41 10° NE visible
29 Jun 7.6 00:20:30 29° WNW 00:21:43 32° NW 00:27:02 10° N visible
29 Jun 7.6 22:06:05 20° E 22:06:05 20° E 22:09:06 10° NE visible
29 Jun 7.0 23:46:31 41° W 23:47:35 45° WNW 23:53:20 10° NNE visible
30 Jun 7.9 21:31:56 14° E 21:31:56 14° E 21:33:57 10° ENE visible
30 Jun 6.4 23:12:20 52° WSW 23:13:31 67° WNW 23:19:31 10° NNE visible
01 Jul 9.0 00:56:42 10° NW 00:58:04 11° NW 00:59:27 10° NNW visible
01 Jul 6.0 22:37:55 48° SSW 22:39:34 84° ESE 22:45:34 10° NNE visible
02 Jul 8.8 00:20:26 10° W 00:23:41 15° NW 00:27:06 10° N visible
02 Jul 6.2 22:03:05 30° S 22:05:41 56° ESE 22:11:29 10° NE visible
02 Jul 8.5 23:45:10 10° W 23:49:22 21° NW 23:53:53 10° N visible
03 Jul 6.7 21:27:34 13° S 21:31:52 37° ESE 21:37:14 10° NE visible
03 Jul 8.0 23:10:20 10° WSW 23:15:09 29° NW 23:20:23 10° N visible
04 Jul 7.2 20:53:49 10° SSE 20:58:07 24° ESE 21:02:45 10° NE visible
04 Jul 7.4 22:35:48 10° SW 22:41:00 42° WNW 22:46:43 10° NNE visible
05 Jul 6.7 22:01:32 10° SW 22:06:56 61° WNW 22:12:56 10° NNE visible
06 Jul 6.2 21:27:29 10° SSW 21:32:56 88° WNW 21:39:00 10° NNE visible
06 Jul 9.1 23:14:10 10° WNW 23:17:10 14° NW 23:20:18 10° NNW visible
07 Jul 6.2 20:53:41 10° SSW 20:59:02 63° ESE 21:04:59 10° NNE visible
07 Jul 8.9 22:38:45 10° W 22:42:51 20° NW 22:47:10 10° N visible
